Regional Weather Roundup
Issued by NWS

Home | Current Version | Previous Version | Text Only | Print | Product List | Glossary On
Versions: 1 2 3 4 5 6 7 8 9 10 11 12 13 14 15 16 17 18 19 20 21 22 23 24 25 26 27 28 29 30 31 32 33 34 35 36 37 38 39 40 41 42 43 44 45 46 47 48 49 50
000
ASUS43 KMKX 291400
RWRWI

WISCONSIN REGIONAL WEATHER ROUNDUP
NATIONAL WEATHER SERVICE MILWAUKEE/SULLIVAN WI
900 AM CDT MON MAY 29 2017

NOTE: "FAIR" INDICATES FEW OR NO CLOUDS BELOW 12,000 FEET WITH NO
SIGNIFICANT WEATHER AND/OR OBSTRUCTIONS TO VISIBILITY.

WIZ001-002-006>008-014>016-023>028-291500-
NORTHWEST WISCONSIN

CITY           SKY/WX    TMP DP  RH WIND       PRES   REMARKS
SUPERIOR ARPT  NOT AVBL
ASHLAND        CLOUDY    57  50  77 W14G20    29.65R
HAYWARD        CLOUDY    54  48  80 W7        29.69R
SIREN          CLOUDY    53  49  85 W8        29.73R
CUMBERLAND     CLOUDY    52  46  82 W12       29.73R
RICE LAKE      CLOUDY    53  49  86 W8        29.74R
CHETEK         CLOUDY    53  49  86 NW7       29.73R
LADYSMITH      CLOUDY    54  50  89 W6        29.72R
EAU CLAIRE     CLOUDY    54  48  80 W16       29.75R
MENOMONIE      CLOUDY    55  48  77 W13       29.76R
NEW RICHMOND   CLOUDY    54  47  77 W8G18     29.77R
OSCEOLA        CLOUDY    55  48  78 W10       29.79R
$$

WIZ003>005-009-010-017-018-291500-
NORTH CENTRAL WISCONSIN

CITY           SKY/WX    TMP DP  RH WIND       PRES   REMARKS
MANITOWISH WTR CLOUDY    51  51 100 W7        29.65R
ARBOR VITAE    CLOUDY    52  50  92 W7        29.67R
WOODRUFF       CLOUDY    52  50  92 W7        29.67R
RHINELANDER    CLOUDY    53  48  83 W14       29.68R
EAGLE RIVER    CLOUDY    51  49  93 SW10      29.65R
LAND O LAKES   CLOUDY    51  49  93 W9        29.66R
PHILLIPS       CLOUDY    50  49  97 W5        29.68R
TOMAHAWK       CLOUDY    52  47  84 W5        29.70R
MEDFORD        CLOUDY    50  48  92 W9        29.71R
MERRILL        CLOUDY    53  50  89 W10       29.70S
$$

WIZ029-030-035-036-043>047-291500-
CENTRAL WISCONSIN

CITY           SKY/WX    TMP DP  RH WIND       PRES   REMARKS
WAUSAU         CLOUDY    53  49  86 W13       29.70S
MOSINEE        CLOUDY    54  50  87 W10G17    29.73R
MARSHFIELD     CLOUDY    52  49  89 W10       29.72S
STEVENS POINT  CLOUDY    52  47  81 W9G16     29.73R
WAUPACA        CLOUDY    60  49  66 W13       29.72S
WAUTOMA        MOSUNNY   60  49  66 W21       29.73F
WISC RAPIDS    LGT RAIN  52  50  93 W7        29.75R
CAMP DOUGLAS   CLOUDY    57  48  72 W12       29.76R
$$

WIZ011>013-019>022-031-037>040-048>050-291500-
NORTHEAST WISCONSIN

CITY           SKY/WX    TMP DP  RH WIND       PRES   REMARKS
ANTIGO         CLOUDY    54  49  86 W14       29.69S
SHAWANO        SUNNY     61  51  68 W13       29.69S
OCONTO         CLOUDY    58  49  73 W9        29.66F
STURGEON BAY   SUNNY     61  49  64 W16       29.67F
GREEN BAY      SUNNY     62  52  69 W16       29.69S
MANITOWOC      NOT AVBL
APPLETON       MOSUNNY   61  45  55 SW14      29.69F
CLINTONVILLE   CLOUDY    57  46  67 W7        29.69F
OSHKOSH        SUNNY     61  48  62 W12G23    29.71F
$$

WIZ032>034-041-042-053>061-291500-
SOUTHWEST WISCONSIN

CITY           SKY/WX    TMP DP  RH WIND       PRES   REMARKS
LA CROSSE      CLOUDY    59  48  67 W10       29.79S
SPARTA         MOSUNNY   58  49  72 W12G21    29.78S
VIROQUA        CLOUDY    55  47  74 N14G20    29.81S
BOSCOBEL       SUNNY     63  46  54 W13G21    29.81S
PRAIRIE DU CHI SUNNY     62  45  54 W15G21    29.83R
PLATTEVILLE    CLOUDY    60  49  67 W14G21    29.83S
$$

WIZ056-057-062-063-064-067-068-291500-
SOUTH CENTRAL WISCONSIN

CITY           SKY/WX    TMP DP  RH WIND       PRES   REMARKS
REEDSBURG      MOSUNNY   58  48  68 W12G18    29.77S
BARABOO/DELLS  SUNNY     58  46  64 W15       29.77S
LONE ROCK      NOT AVBL
MINERAL POINT  SUNNY     61  46  59 W17G23    29.81R
MADISON        MOSUNNY   62  47  57 VRB7      29.76F
MIDDLETON      SUNNY     62  47  58 W15G23    29.79R
WATERTOWN      SUNNY     63  49  61 SW16G22   29.75F
MONROE         SUNNY     59  48  67 W18       29.80S
JANESVILLE     MOSUNNY   64  48  55 W13G20    29.78F
$$

WIZ051-052-058>065-066-070>072-291500-
SOUTHEAST WISCONSIN

CITY           SKY/WX    TMP DP  RH WIND       PRES   REMARKS
MILWAUKEE      MOSUNNY   67  46  47 W14G26    29.76R
WAUKESHA       SUNNY     63  46  55 SW20G28   29.78R
MILWAUKEE/TIMM SUNNY     64  43  45 W15G28    29.76R
RACINE         SUNNY     67  46  47 W18G31    29.78R
KENOSHA        SUNNY     67  48  50 W18G28    29.77S
FOND DU LAC    SUNNY     62  45  53 W10G24    29.73S
SHEBOYGAN      SUNNY     63  49  60 W22G31    29.70F
WEST BEND      SUNNY     61  45  55 W16G28    29.73S
JUNEAU         SUNNY     60  48  64 SW16G22   29.76S
$$

LSZ147-162-291500-
LAKE SUPERIOR

STATION/POSITION TIME  TEMP    WIND        PRES    WAVE
                       AIR SEA DIR/SP/G            HT/PER
                 (UTC) (F)     (DEG/KT/KT) (MB)    (FT/S)
W MID LAKE BUOY  1250   42 37  260/ 14/ 16 1001.7S   1/ 3
DEVILS ISLAND    1300   46     230/ 17/ 19 1002.8R
PORT WING        1240   54     250/ 12/ 19 1004.1R
SAXON HARBOR     1340   57     250/  6/ 13 1003.4S
$$

LMZ867-665-643>646-291500-
LAKE MICHIGAN

STATION/POSITION TIME  TEMP    WIND        PRES    WAVE
                       AIR SEA DIR/SP/G            HT/PER
                 (UTC) (F)     (DEG/KT/KT) (MB)    (FT/S)
CHAMBERS ISLAND  1340   58     190/  7/ 11 1004.1S
N MID LAKE BUOY  1150   45 41  220/ 10/ 12 1005.1R   1/ 4
NORTHPORT PIER   1340   60     270/  2/ 10 1004.1F
KEWAUNEE LAKESHO 1330   62     270/ 10/ 13 1004.6F
SHEBOYGAN LAKESH 1300   60     270/ 16/ 19 1005.5F
PORT WASHINGTON  1330   66     270/ 12/ 21 1007.1F
ATWATER BUOY     1209   60     250/ 14/ 17 1007.3R
MILWAUKEE LAKESH 1330   64     270/ 12/ 16   N/A
S MID LAKE BUOY  1250   52 46  260/ 12/ 12 1007.7R   1
KENOSHA   LAKESH 1300   64     260/ 15/ 19 1007.8
$$

TC  - TEMPERATURE IN CELSIUS
VSB - VISIBILITY IN STATUTE MILES
WCI - WIND CHILL INDEX
HX  - HEAT INDEX




USA.gov is the U.S. government's official web portal to all federal, state and local government web resources and services.